GPS IIF-6

operational
NORAD ID: 39741 Int'l Des: 2014-026 Owner: AFSMC Country: US Constellation: GPS
MEOCIRCULARGNSS

Über GPS IIF-6

Beschreibung wird geladen...

Live-Position

3D-Globus wird geladen...

Nächste Überflüge

Höhenverlauf

Altitude vs Time

uPlot chart will show altitude changes over time

Zweizeiliger Elementsatz

1 39741U 14026A 25298.62974264 -.00000075 00000-0 00000+0 0 9995
2 39741 56.6008 340.6490 0037474 316.9651 42.8031 2.00564888 83834
Epoch: 25. Okt. 2025 • Age: 20 hours

Aktueller Status

Höhe 20160.3 km
Geschwindigkeit 3.88 km/s
Subsatellitenpunkt -52.20°S, 11.94°E
Startdatum 17. Mai 2014
Alter 11.4 years
Typ navigation

Technische Details

Klassifizierung Payload
Masse 1630.00 kg
Trockenmasse 1500.00 kg
Gesamtmasse 1630.00 kg
Länge 2.50 m
Durchmesser 1.80 m
Spannweite 18.00 m
Form Box+ 2pan
Hersteller BOES
Bus-Typ GPS IIF
Phasenstatus In Orbit
Besitzer/Staat AFSMC/US

Große Konstellationen

Loading constellations...